040807 213  0.4-  0.4+    040930 118  0.4+  0.2-    041209 704  1.4+  0.4+    

040808 048  0.3+  1.1-    041001 445  0.5-  1.0-    041209 704  2.5+  2.1+    

040809 048  0.1+  0.5-    041001 J78  1.8+  0.0     041212 704  0.9+  0.9+    

040809 048  0.1-  0.1-    041001 J78  0.7+  0.4+    041212 704  0.8+  0.6+    

040809 048  0.9+  0.0     041001 J78  0.1+  0.7+    041212 704  0.8+  0.5+    

040811 048  0.2-  1.5-    041001 445 (5.6+  1.0-)   041212 699 (4.0+  1.3+)   

040811 048  0.2-  0.5-    041002 213  0.2+  0.2+    041212 704  0.6+  0.8+    

040811 048  0.9-  1.0-    041002 213  0.2+  1.4-    041212 699  2.6+  1.3+    

040811 048  1.1-  0.8-    041002 213  0.2+  0.8-    041212 704  0.9+  1.0+    

040811 048  0.8-  0.6-    041003 415  0.2+  0.2+    041212 699 (4.7+  1.3+)   

040811 048  1.2-  0.6-    041003 415  0.5+  0.3-    041212 699 (4.1+  1.3+)   

040811 048  1.4-  1.0-    041003 415  0.5+  0.2+    2005/                     

040813 213  1.4-  0.2+    041003 J78 (4.2+  6.8-)   050101 J76  0.1+  0.5+    

040813 213  1.4-  0.1+    041006 360  0.3+  0.0     050101 J76  0.4+  0.5+    

040813 213  0.4-  0.1+    041006 360  0.2+  0.1+    050101 J76  0.2+  0.6+    

040814 939  1.3-  0.4-    041007 I77  0.4-  0.7-    050102 349  0.2+  0.4+    

040814 939  1.4-  0.5-    041007 I77  0.3-  0.4-    050102 349  0.5+  0.2+    

040814 939  2.0-  0.5-    041007 I77  0.1+  0.8-    050102 349  0.6+  0.2+    

040815 939  2.2-  0.8-    041007 I77  0.2-  0.2-    050104 D88  0.2+  0.4+    

040815 939  1.6-  0.5-    041007 704  1.5+  0.6+    050104 D88  1.1+  0.3-    

040815 939  1.2-  0.2-    041007 704  0.2+  2.0+    050106 415  0.2+  1.1+    

040816 939  2.8-  1.7-    041007 704  0.0   1.2+    050106 442  0.5+  0.9+    

040816 939  1.7-  0.5-    041007 704  0.3-  0.6+    050106 442  0.1-  0.4+    

040816 939  0.9-  0.1+    041007 704  2.4-  0.4+    050107 704  0.9+  1.3+    

040817 A01  0.3-  1.3-    041008 415  0.1+  0.2-    050107 704  0.9+  1.5+    

040817 A01  1.7-  0.9-    041008 415  0.3-  0.3-    050107 704  1.1+  1.6+    

040818 A02  3.2-  2.5-    041008 415  0.6+  0.9-    050107 704  1.5+  1.8+    

040818 A02  1.5-  0.7-    041008 945  0.1+  0.4+    050107 704  1.9+  1.9+    

040819 A02  1.8-  2.0-    041008 945  0.0   0.4-    050107 599  0.6+  0.6+    

040819 A02  1.0-  1.7-    041008 945  0.1+  0.3+    050107 599  0.2+  0.5+    

040819 939  0.7-  0.1-    041008 945  0.2+  0.2-    050107 599  0.6+  0.6+    

040819 939  1.1-  0.5-    041008 945  0.7+  0.3-    050107 599  0.4+  0.5+    

040819 939  1.5-  0.5-    041009 415  0.3-  0.2-    050107 939  1.3+  0.8+    

040819 A32  1.6-  0.7-    041009 415  1.0+  0.3-    050107 939  1.3+  0.9+    

040820 A32  1.3-  0.5-    041009 415  0.1+  0.2-    050107 939  1.3+  1.0+    

040820 415  0.0   0.6-    041009 213  0.3+  0.7+    050108 D83  2.6+  0.5+    

040821 939  0.3-  0.0     041009 213  0.2+  0.9+    050108 D83  1.9+  0.5+    

040821 939  0.8-  0.5-    041009 213  0.3+  0.6+    050108 D83  0.6+  0.5+    

040821 939  1.5-  1.0-    041010 608  0.4+  0.0     050108 D83  2.0+  0.0     

040821 A01  0.5-  1.5-    041010 608  1.0+  0.6+    050110 D88  0.9+  0.1+    

040821 A01  0.4-  0.6-    041010 608  0.9+  0.3-    050110 D88  2.2+  0.7+    

040827 699  3.4-  1.9-    041010 608  0.5+  0.3+    050110 D88  1.7+  1.7+    

040827 699 (3.7-  1.8-)   041010 608  0.7+  0.1+    050110 215  0.3+  0.1-    

040827 699 (3.9-  1.7-)   041010 608  0.2+  0.1+    050110 215  0.5+  0.2+    

040827 699  3.1-  1.5-    041010 608  0.7+  0.5+    050110 215  0.4-  0.2+    

040828 130  0.7-  1.3-    041010 608  0.5+  0.2+    050110 215  0.8+  0.1+    

040828 130  0.9-  0.5-    041010 608  0.3+  0.0     050122 939  0.6+  0.9+    

040902 048  1.7-  0.2+    041010 D70  0.3+  0.7+    050122 939  0.6+  0.9+    

040902 048  1.3-  0.3+    041010 D70  0.7+  0.3+    050122 939  0.7+  0.8+    

040902 048  0.1+  0.0     041010 D70  1.1+  0.2+    050129 939  0.9+  0.3+    

040903 A54 (8.2+  4.3+)   041010 A01  1.2+  0.6-    050129 939  0.9+  0.7+    

040903 A54 (8.9+  3.2+)   041010 A01  1.6+  0.2-    050129 939  1.0+  0.8+    

040903 A54 (8.7+  1.1+)   041010 J97  3.4+  1.5-    050130 J76  0.1+  0.2+    

040903 A54 (8.6+  0.7+)   041010 J97  0.4+  0.6+    050130 J76  0.1+  0.6+    

040904 A32  1.4-  0.4-    041010 A02  0.3+  0.1+    050130 J76  0.2-  0.4+    

040904 A32  1.9-  0.5-    041010 A02  0.4+  0.1-    050131 J76  0.5+  0.6+    

040904 204  0.0   0.0     041010 A02  0.1+  0.2-    050131 J76  0.4-  0.6+    

040904 204  0.0   0.2+    041011 939  0.6+  0.0     050131 J76  0.2-  0.4+    

040904 204  0.3+  0.3-    041011 939  0.8+  0.0     050131 J76  0.1-  0.2+    

040904 204  0.0   0.0     041011 939  1.0+  0.1+    050216 132  0.5+  1.2+    

040904 048  0.7-  0.2-    041011 750  0.5+  0.1-    050216 132  0.6+  0.9+    

040904 048  1.7-  0.6-    041011 750  0.0   0.2-    050216 132  2.2+  2.4+    

040904 048  0.6-  0.3-    041011 750  0.1+  0.1-    050228 G92  0.5+  0.6+    

040904 048  0.9-  0.0     041011 900  1.1+  0.4+    050228 G92  0.5+  0.7+    

040904 048  0.6+  0.3+    041011 900  0.6+  0.1-    050228 G92  1.6+  1.2+    

040904 048  0.5-  0.3+    041011 A10  1.2+  0.9+    050311 213  1.2+  1.3+    

040904 048  0.7-  0.2+    041011 939  0.6+  0.3+    050311 213  1.6+  0.4+    

040905 A54 (9.6+  0.7+)   041011 445  0.8+  0.9+    050311 213  1.2+  0.8+    

040905 A54(10.8+  0.3+)   041011 939  0.5+  0.2+                              

040905 A54(12.0+  0.0 )   041011 J78  0.8+  0.0                               



NAKANO

         **** Don't distribute anyone except personal use only ****

                (C) Copyright 2005 OAA/ComputingSection

write mail from CFAD0::NAKANO on 2005-11-03 23:22:12(JST).





  56P/Slaughter-Burnham 

Epoch 2005 Jan. 30.0 TT = JDT 2453400.5  

T 2005 Jan. 15.02067 TT                                 Nakano

q   2.5352246            (2000.0)            P               Q

n   0.08532505     Peri.   44.09661     +0.86112378     -0.50727943

a   5.1099700      Node   346.27165     +0.41829888     +0.74459929

e   0.5038670      Incl.    8.15551     +0.28894962     +0.43386574

P  11.55

From 77 observations 1958-1997, mean residual 0".84.



NAKANO

         **** Don't distribute anyone except personal use only ****

                (C) Copyright 2002 OAA/ComputingSection

write mail from CFAD0::NAKANO on 2002-05-10 00:07:37(JST).





–ß‚è‚Ü‚·B